Weather History for Covington, KY

Change the Weather History Date:

Sunday, September 25, 2011

  Actual Average Record
Temperature  
Mean Temperature 66 °F 64 °F  
Max Temperature 74 °F 74 °F 93 °F (2007)
Min Temperature 57 °F 53 °F 35 °F (1950)
Degree Days  
Heating Degree Days 0 4  
Month to date heating degree days 48 35  
Since 1 July heating degree days 48 35  
Cooling Degree Days 1 2  
Month to date cooling degree days 104 127  
Year to date cooling degree days 1333 1095  
Growing Degree Days 15 (Base 50)    
Moisture  
Dew Point 56 °F    
Average Humidity 73    
Maximum Humidity 93    
Minimum Humidity 53    
Precipitation  
Precipitation 0.21 in 0.09 in 2.02 in (2000)
Month to date precipitation 3.50 2.17  
Year to date precipitation 50.40 31.96  
Snow  
Snow 0.00 in 0.00 in - ()
Month to date snowfall 0.0 0.0  
Since 1 July snowfall 0.0 0.0  
Since 1 September snowfall 0.0 0.0  
Snow Depth 0.00 in    
Sea Level Pressure  
Sea Level Pressure 29.91 in    
Wind  
Wind Speed 8 mph (ENE)    
Max Wind Speed 17 mph    
Max Gust Speed 22 mph    
Visibility 10 miles    
Events Rain    
T = Trace of Precipitation, MM = Missing Value Source: NWS Daily Summary

Daily Weather History Graph

Daily Weather History Graph

Search for Another Location

Airport:

Trip Planner

Search our weather history database for the weather conditions in past years. The results will help you decide how hot, cold, wet, or windy it might be!

Date:

Astronomy

Sep. 25, 2011 Rise Set
Actual Time 7:28 AM EDT 7:31 PM EDT
Civil Twilight 7:02 AM EDT 7:57 PM EDT
Nautical Twilight 6:31 AM EDT 8:28 PM EDT
Astronomical Twilight 5:59 AM EDT 9:00 PM EDT
Moon 5:15 AM EDT (9/25) 6:11 PM EDT (9/25)
Length of Visible Light 12h 55m
Length of Day
12h 02m
Waning Crescent, 5% of the Moon is Illuminated
Sep 25
Waning Crescent
Sep 27
New
Oct 3
First Quarter
Oct 11
Full
Oct 19
Last Quarter

Hourly Weather History & Observations

Time (EDT) Temp. Dew Point Humidity Pressure Visibility Wind Dir Wind Speed Gust Speed Precip Events Conditions
12:52 AM 57.0 °F 53.1 °F 87% 29.97 in 10.0 mi SE 5.8 mph - N/A   Mostly Cloudy
1:52 AM 57.9 °F 54.0 °F 87% 29.96 in 10.0 mi ESE 10.4 mph - N/A   Scattered Clouds
2:52 AM 57.9 °F 54.0 °F 87% 29.95 in 10.0 mi SE 4.6 mph - N/A   Partly Cloudy
3:52 AM 57.9 °F 54.0 °F 87% 29.94 in 10.0 mi SE 5.8 mph - N/A   Scattered Clouds
4:52 AM 57.9 °F 55.0 °F 90% 29.95 in 10.0 mi SSE 4.6 mph - N/A   Overcast
6:52 AM 57.9 °F 55.9 °F 93% 29.96 in 10.0 mi ESE 4.6 mph - 0.01 in   Overcast
7:52 AM 57.9 °F 55.9 °F 93% 29.97 in 8.0 mi SE 4.6 mph - N/A   Overcast
8:52 AM 57.9 °F 55.9 °F 93% 29.98 in 7.0 mi ESE 4.6 mph - N/A   Overcast
10:52 AM 66.0 °F 57.9 °F 75% 29.98 in 10.0 mi South 4.6 mph - N/A   Mostly Cloudy
11:52 AM 71.1 °F 53.1 °F 53% 29.98 in 10.0 mi NW 3.5 mph - N/A   Mostly Cloudy
12:52 PM 73.0 °F 55.9 °F 55% 29.96 in 10.0 mi Variable 4.6 mph - N/A   Scattered Clouds
1:52 PM 73.0 °F 59.0 °F 61% 29.94 in 10.0 mi WNW 10.4 mph - N/A   Mostly Cloudy
2:52 PM 72.0 °F 57.0 °F 59% 29.92 in 10.0 mi NW 9.2 mph - N/A   Mostly Cloudy
3:52 PM 72.0 °F 57.9 °F 61% 29.91 in 10.0 mi NW 10.4 mph - N/A   Mostly Cloudy
4:52 PM 70.0 °F 57.0 °F 63% 29.87 in 10.0 mi North 11.5 mph - N/A   Scattered Clouds
5:52 PM 71.1 °F 57.0 °F 61% 29.85 in 10.0 mi North 8.1 mph - N/A   Scattered Clouds
6:52 PM 66.2 °F 57.2 °F 73% 29.87 in 10.0 mi North 10.4 mph - N/A   Mostly Cloudy
7:52 PM 64.0 °F 57.0 °F 78% 29.83 in 10.0 mi North 11.5 mph - 0.00 in   Overcast
8:52 PM 63.0 °F 57.0 °F 81% 29.79 in 10.0 mi NNE 12.7 mph - N/A   Mostly Cloudy
9:52 PM 63.0 °F 57.0 °F 81% 29.81 in 10.0 mi NW 9.2 mph - N/A   Mostly Cloudy
11:52 PM 64.9 °F 60.1 °F 84% 29.78 in 10.0 mi East 13.8 mph - 0.04 in Rain Light Rain